Location: Fredericton
(45.9636°N, 66.6431°W)
Time: 23:39:39
(UTC-03:00)

ISS - Visible Passes

Search period start: 24 July 2017 00:00
Search period end: 03 August 2017 00:00
Orbit: 400 x 408 km, 51.6° (Epoch: 25 July)

Date Brightness Start Highest point End Pass type
(mag) Time Alt. Az. Time Alt. Az. Time Alt. Az.
24 Jul -2.1 00:36:40 10° WNW 00:39:40 33° N 00:42:41 10° NE visible
24 Jul -2.0 02:13:43 10° WNW 02:16:41 31° N 02:19:39 10° ENE visible
24 Jul -3.9 03:50:10 10° WNW 03:53:26 89° WNW 03:56:43 10° ESE visible
24 Jul -3.5 22:07:38 10° SW 22:10:43 43° SE 22:13:50 10° ENE visible
24 Jul -2.6 23:44:06 10° W 23:47:13 42° NNW 23:50:21 10° NE visible
25 Jul -1.8 01:21:17 10° WNW 01:24:12 29° N 01:27:06 10° ENE visible
25 Jul -3.3 02:57:52 10° WNW 03:01:05 58° NNE 03:04:19 10° ESE visible
25 Jul -2.8 04:34:37 10° W 04:37:23 25° SW 04:40:08 10° SSE visible
25 Jul -3.3 22:51:35 10° WSW 22:54:48 59° NNW 22:58:02 10° ENE visible
26 Jul -1.8 00:28:47 10° WNW 00:31:41 29° N 00:34:22 11° ENE visible
26 Jul -1.6 02:05:32 10° NW 02:06:55 21° NW 02:06:55 21° NW visible
26 Jul -3.9 21:59:11 10° WSW 22:02:26 89° SSE 22:05:42 10° ENE visible
26 Jul -2.0 23:36:12 10° WNW 23:39:11 31° N 23:42:09 10° ENE visible
27 Jul -2.0 01:13:11 10° NW 01:15:41 31° N 01:15:41 31° N visible
27 Jul -2.3 22:43:36 10° W 22:46:41 38° NNW 22:49:46 10° NE visible
28 Jul -1.9 00:20:46 10° WNW 00:23:40 29° N 00:24:44 24° NE visible
28 Jul -0.8 01:57:16 10° WNW 01:57:20 10° WNW 01:57:20 10° WNW visible
28 Jul -2.9 21:51:01 10° W 21:54:12 52° NNW 21:57:25 10° ENE visible
28 Jul -1.8 23:28:14 10° WNW 23:31:08 28° N 23:33:52 11° ENE visible
29 Jul -1.6 01:04:55 10° WNW 01:06:28 24° NW 01:06:28 24° NW visible
29 Jul -1.9 22:35:38 10° WNW 22:38:34 30° N 22:41:31 10° ENE visible
30 Jul -2.4 00:12:32 10° NW 00:15:35 35° NNE 00:15:39 35° NNE visible
30 Jul -2.2 21:42:59 10° W 21:46:02 35° NNW 21:49:04 10° NE visible
30 Jul -2.0 23:20:05 10° WNW 23:23:02 30° N 23:24:51 18° ENE visible
31 Jul -1.3 00:56:34 10° WNW 00:57:28 17° WNW 00:57:28 17° WNW visible
31 Jul -1.9 22:27:33 10° WNW 22:30:27 28° N 22:33:21 10° ENE visible
01 Aug -2.6 00:04:10 10° WNW 00:06:42 42° NNW 00:06:42 42° NNW visible
01 Aug -1.9 21:34:56 10° WNW 21:37:51 29° N 21:40:47 10° ENE visible
01 Aug -2.6 23:11:46 10° NW 23:14:51 38° NNE 23:15:57 28° ENE visible
02 Aug -0.9 00:48:13 10° WNW 00:48:34 12° WNW 00:48:34 12° WNW visible
02 Aug -2.2 22:19:18 10° WNW 22:22:16 31° N 22:25:12 10° ENE visible
